DW6277 Weather Reports


Display with metric or nautical units.
time (UTC)temp
F
wind
direction
speed
MPH
gust
MPH
rain 1hr
in
rain 24hr
in
rain mn
in
humidity
%
barometer
mb
20260509130236 60 314 0.0 1.0 0.00 0.00 0.00 82 1025.0
20260509125213 60 314 0.0 2.0 0.00 0.00 0.00 81 1025.0
20260509124146 61 304 0.0 0.0 0.00 0.00 0.00 81 1024.9
20260509123149 61 302 0.0 2.0 0.00 0.00 0.00 80 1024.9
20260509122209 63 300 0.0 0.0 0.00 0.00 0.00 79 1025.0
20260509121214 63 233 0.0 3.0 0.00 0.00 0.00 80 1025.0
20260509120147 63 218 1.0 4.0 0.00 0.00 0.00 80 1025.1
20260509115141 63 181 2.0 4.0 0.00 0.00 0.00 80 1025.0
20260509114134 63 190 1.0 3.0 0.00 0.00 0.00 80 1025.0
20260509113158 63 250 1.0 4.0 0.00 0.00 0.00 79 1025.0
20260509112128 63 237 2.0 4.0 0.00 0.00 0.00 78 1025.0
20260509111141 64 247 1.0 3.0 0.00 0.00 0.00 76 1025.0
20260509110107 64 246 0.0 2.0 0.00 0.00 0.00 75 1025.0
20260509105105 65 195 0.0 1.0 0.00 0.00 0.00 74 1024.9
20260509103003 67 179 3.0 7.0 0.00 0.00 0.00 72 1024.8
20260509101947 66 153 3.0 7.0 0.00 0.00 0.00 74 1024.7
20260509100934 66 143 1.0 6.0 0.00 0.00 0.00 75 1024.6
20260509095936 66 224 2.0 6.0 0.00 0.00 0.00 74 1024.6
20260509094934 66 148 1.0 6.0 0.00 0.00 0.00 74 1024.5
20260509093904 67 191 3.0 6.0 0.00 0.00 0.00 73 1024.6
20260509092832 67 149 3.0 7.0 0.00 0.00 0.00 73 1024.5
20260509091801 67 136 3.0 7.0 0.00 0.00 0.00 73 1024.4
20260509083351 67 168 3.0 9.0 0.00 0.00 0.00 73 1024.0
20260509082354 67 141 4.0 9.0 0.00 0.00 0.00 74 1023.9
20260509081334 67 111 3.0 9.0 0.00 0.00 0.00 72 1023.8
20260509080327 67 141 4.0 9.0 0.00 0.00 0.00 71 1023.6
20260509075308 67 176 4.0 9.0 0.00 0.00 0.00 72 1023.5
20260509074304 67 151 4.0 8.0 0.00 0.00 0.00 72 1023.4
20260509073324 67 113 4.0 10.0 0.00 0.00 0.00 69 1023.3
20260509072343 67 167 4.0 10.0 0.00 0.00 0.00 70 1023.2
20260509071310 67 168 5.0 9.0 0.00 0.00 0.00 70 1023.1
20260509070325 67 172 5.0 11.0 0.00 0.00 0.00 72 1023.0
20260509065331 67 190 5.0 11.0 0.00 0.00 0.00 70 1022.8
20260509064344 67 152 5.0 10.0 0.00 0.00 0.00 71 1022.8
20260509063341 68 179 5.0 12.0 0.00 0.00 0.00 70 1022.7
20260509062320 68 167 4.0 12.0 0.00 0.00 0.00 70 1022.6
20260509061334 68 138 5.0 9.0 0.00 0.00 0.00 69 1022.5
20260509060339 68 144 5.0 9.0 0.00 0.00 0.00 68 1022.5
20260509055325 68 141 4.0 8.0 0.00 0.00 0.00 66 1022.5
20260509054301 68 143 5.0 10.0 0.00 0.00 0.00 68 1022.4
20260509053242 68 165 4.0 9.0 0.00 0.00 0.00 68 1022.3
20260509052232 69 112 4.0 9.0 0.00 0.00 0.00 66 1022.3
20260509051159 69 113 4.0 9.0 0.00 0.00 0.00 67 1022.2
20260509050202 69 164 4.0 10.0 0.00 0.00 0.00 67 1022.2
20260509045158 69 141 5.0 10.0 0.00 0.00 0.00 65 1022.3
20260509044130 69 199 5.0 9.0 0.00 0.00 0.00 66 1022.3
20260509043153 69 176 6.0 10.0 0.00 0.00 0.00 67 1022.2
20260509042128 69 169 6.0 10.0 0.00 0.00 0.00 68 1022.2
20260509040017 69 189 5.0 12.0 0.00 0.00 0.00 66 1022.3
20260509033819 69 149 5.0 13.0 0.00 0.00 0.00 66 1022.3
20260509032803 68 173 7.0 13.0 0.00 0.00 0.00 67 1022.4
20260509031748 69 162 6.0 11.0 0.00 0.00 0.00 68 1022.4
20260509025636 69 148 6.0 12.0 0.00 0.00 0.00 66 1022.5
20260509024631 69 146 6.0 10.0 0.00 0.00 0.00 63 1022.6
20260509023655 69 210 5.0 10.0 0.00 0.00 0.00 65 1022.7
20260509022715 70 133 5.0 9.0 0.00 0.00 0.00 64 1022.9
20260509020522 71 179 3.0 7.0 0.00 0.00 0.00 58 1023.0
20260509015458 71 169 3.0 8.0 0.00 0.00 0.00 57 1023.1
20260509014508 71 196 3.0 8.0 0.00 0.00 0.00 57 1023.2
20260509013451 70 247 4.0 7.0 0.00 0.00 0.00 57 1023.4
20260509012513 71 180 3.0 8.0 0.00 0.00 0.00 56 1023.5
20260509011536 70 180 3.0 8.0 0.00 0.00 0.00 58 1023.7
20260509010523 70 196 3.0 7.0 0.00 0.00 0.00 59 1023.7
20260509005539 70 200 3.0 6.0 0.00 0.00 0.00 58 1023.9
20260509004603 70 193 3.0 7.0 0.00 0.00 0.00 58 1024.0
20260509002441 70 221 2.0 8.0 0.00 0.00 0.00 59 1024.0
20260509001422 69 245 2.0 12.0 0.00 0.00 0.00 60 1024.1
20260508235325 68 305 2.0 7.0 0.00 0.00 0.00 62 1024.1
20260508234322 68 248 3.0 7.0 0.00 0.00 0.00 61 1024.1
20260508233252 66 272 3.0 7.0 0.00 0.00 0.00 64 1024.1
20260508232314 66 300 2.0 6.0 0.00 0.00 0.00 65 1024.0
20260508230233 62 8 2.0 8.0 0.00 0.00 0.00 71 1024.0
20260508225229 61 292 3.0 8.0 0.00 0.00 0.00 72 1024.0
20260508224217 60 321 4.0 8.0 0.00 0.00 0.00 73 1024.0
20260508223152 59 319 3.0 8.0 0.00 0.00 0.00 75 1023.9
20260508222213 58 309 3.0 7.0 0.00 0.00 0.00 77 1023.9
20260508221200 57 310 2.0 7.0 0.00 0.00 0.00 79 1023.8
20260508220152 56 307 3.0 6.0 0.00 0.00 0.00 80 1023.7
20260508215139 55 285 1.0 5.0 0.00 0.00 0.00 81 1023.6
20260508214146 55 316 0.0 3.0 0.00 0.00 0.00 82 1023.5
20260508213140 53 302 1.0 1.0 0.00 0.00 0.00 82 1023.4
20260508212147 53 320 2.0 6.0 0.00 0.00 0.00 82 1023.2
20260508211203 52 304 1.0 7.0 0.00 0.00 0.00 82 1023.2
20260508210222 52 319 2.0 7.0 0.00 0.00 0.00 82 1023.1
20260508205226 52 326 1.0 6.0 0.00 0.00 0.00 82 1022.8
20260508204219 52 313 1.0 6.0 0.00 0.00 0.00 81 1022.7
20260508203206 52 306 1.0 5.0 0.00 0.00 0.00 81 1022.6
20260508202137 52 307 1.0 5.0 0.00 0.00 0.00 81 1022.5
20260508200024 54 310 1.0 8.0 0.00 0.00 0.00 79 1022.3
20260508195037 55 321 1.0 8.0 0.00 0.00 0.00 80 1022.2
20260508191645 53 283 0.0 5.0 0.00 0.00 0.00 82 1021.6
20260508184313 52 314 1.0 4.0 0.00 0.00 0.00 81 1021.6
20260508182149 52 319 0.0 3.0 0.00 0.00 0.00 81 1021.6
20260508181206 53 334 0.0 2.0 0.00 0.00 0.00 80 1021.6
20260508175118 53 310 0.0 3.0 0.00 0.00 0.00 81 1021.4
20260508174115 53 318 1.0 0.0 0.00 0.00 0.00 80 1021.3
20260508173104 53 295 1.0 4.0 0.00 0.00 0.00 80 1021.3
20260508172109 53 311 2.0 5.0 0.00 0.00 0.00 80 1021.3
20260508171039 53 282 2.0 5.0 0.00 0.00 0.00 80 1021.3
20260508170055 53 337 1.0 3.0 0.00 0.00 0.00 80 1021.3
20260508165114 53 317 0.0 2.0 0.00 0.00 0.00 79 1021.2
20260508164128 53 334 1.0 2.0 0.00 0.00 0.00 79 1021.1
20260508163107 53 326 0.0 2.0 0.00 0.00 0.00 79 1021.2
20260508162036 53 311 1.0 2.0 0.00 0.00 0.00 79 1021.2
20260508161008 53 307 0.0 1.0 0.00 0.00 0.00 79 1021.3
20260508154858 53 315 1.0 3.0 0.00 0.00 0.00 79 1021.3
20260508153828 53 324 1.0 4.0 0.00 0.00 0.00 78 1021.3
20260508152806 53 319 2.0 4.0 0.00 0.00 0.00 78 1021.3
20260508151813 53 314 0.0 2.0 0.00 0.00 0.00 78 1021.2
20260508150802 54 326 0.0 0.0 0.00 0.00 0.00 77 1021.3
20260508145732 54 326 0.0 0.0 0.00 0.00 0.00 77 1021.3
20260508144728 54 326 0.0 0.0 0.00 0.00 0.00 76 1021.2
20260508143708 55 324 0.0 0.0 0.00 0.00 0.00 75 1021.2
20260508141538 55 325 1.0 3.0 0.00 0.00 0.00 74 1021.0
20260508140547 56 309 1.0 4.0 0.00 0.00 0.00 74 1020.9
20260508135533 56 315 1.0 4.0 0.00 0.00 0.00 73 1020.8
20260508134550 56 331 1.0 3.0 0.00 0.00 0.00 72 1020.8
20260508133537 57 333 0.0 2.0 0.00 0.00 0.00 71 1020.8
20260508132525 58 335 1.0 3.0 0.00 0.00 0.00 70 1020.9
20260508131505 58 340 1.0 5.0 0.00 0.00 0.00 69 1020.7